Theta_e
306 307 307 308 308 309 309 309 307 307 308 308 308 308 307 307 307 309 312 313 315 316 317 317 318 318 318 320 319 318 314 315 314 313 316 319 317 317 316 318 319 319 318 317 318 318 319
306 306 306 305 305 306 307 309 309 307 307 307 307 307 307 307 307 305 308 311 313 314 316 316 318 318 320 320 317 316 317 319 316 316 317 318 317 317 316 318 320 319 320 319 319 319 319
307 306 305 304 304 304 304 304 306 309 307 306 306 306 307 307 307 305 306 308 311 312 315 316 317 317 319 317 316 317 317 317 319 319 318 317 317 316 319 320 320 320 319 319 319 320 320
305 306 307 305 304 304 304 304 304 305 307 307 306 306 306 306 306 307 304 306 310 312 314 316 317 316 319 315 316 317 317 316 317 319 318 317 316 318 319 320 321 320 320 319 320 321 322
304 303 304 305 306 305 304 303 303 302 304 305 307 306 306 306 306 306 305 305 307 310 312 314 316 318 318 314 316 316 316 316 316 319 318 317 317 318 320 320 321 319 319 319 320 323 323
304 304 304 304 303 304 306 305 304 303 302 302 304 307 306 305 306 306 306 304 308 311 314 316 317 318 316 315 316 316 315 315 316 319 318 318 318 319 320 320 322 322 321 321 320 323 323
303 303 303 303 303 303 303 305 306 305 303 302 302 304 306 305 305 306 306 310 315 320 317 320 317 316 313 317 315 315 316 315 316 320 320 319 319 320 321 322 323 322 321 321 322 323 324
303 303 304 304 304 303 303 303 305 306 305 303 302 302 305 305 305 305 306 311 312 317 318 318 320 318 316 316 318 317 317 315 317 321 320 320 321 320 321 322 321 322 321 321 321 322 321
303 303 304 304 305 304 305 304 304 302 304 304 303 302 302 306 305 305 307 309 311 316 317 313 313 312 315 315 317 318 317 315 317 320 321 322 322 322 321 322 321 321 320 322 324 322 321
302 303 303 303 304 304 304 304 304 304 303 304 303 302 303 306 305 307 307 309 310 315 318 309 312 315 313 314 314 316 318 315 317 318 319 321 321 322 322 322 321 322 321 323 322 322 322
302 302 303 304 304 304 304 304 304 303 304 304 303 302 302 305 307 310 312 313 315 318 311 311 314 317 317 315 314 315 316 318 316 318 319 321 321 322 322 321 321 323 323 324 322 321 323
302 303 304 304 304 305 305 305 304 304 303 304 304 302 302 306 306 307 310 311 316 320 309 312 319 318 318 315 314 315 317 319 317 318 320 320 321 321 321 321 322 321 322 323 323 323 326
303 304 304 304 304 304 305 305 305 304 303 303 303 303 303 306 307 307 308 311 318 313 308 310 318 319 317 318 316 316 317 320 318 318 321 320 320 320 320 321 321 321 322 326 329 330 330
303 303 304 304 304 304 304 305 305 305 304 303 303 303 303 305 306 308 309 314 315 310 311 315 314 319 319 320 319 318 317 318 319 317 319 320 322 321 321 321 322 322 322 328 332 335 335
303 303 304 304 304 304 305 305 305 305 304 303 303 303 304 304 305 307 310 315 313 312 311 311 316 319 322 320 319 319 319 318 318 318 320 320 321 320 321 321 321 324 326 324 332 331 336
303 303 304 304 304 304 305 305 305 305 305 303 304 304 304 304 305 307 310 311 310 311 311 312 312 318 321 321 319 318 319 319 318 318 319 319 324 321 321 321 320 321 324 327 328 334 329
302 302 303 304 304 305 305 305 306 306 305 304 304 305 304 304 306 309 310 310 311 310 311 311 311 312 312 318 319 318 318 318 319 319 319 319 322 323 322 321 321 321 325 327 326 326 331
302 302 302 304 304 304 305 304 305 306 305 304 304 306 305 305 308 308 309 310 309 308 311 312 313 313 314 316 319 318 318 319 317 318 319 320 323 325 322 321 321 321 323 327 330 329 329
302 302 303 303 302 303 304 305 306 306 305 305 304 305 304 306 309 308 309 308 309 309 311 312 313 314 318 320 319 321 318 319 319 318 319 321 321 324 324 323 322 320 322 323 325 326 328
303 302 302 302 302 302 304 305 305 306 306 305 304 305 307 307 308 309 309 308 309 309 309 312 313 314 317 320 321 322 320 318 321 321 319 321 322 323 327 326 323 322 321 325 326 331 329
300 301 300 300 301 302 302 302 303 306 306 304 303 306 308 308 308 310 308 308 309 308 309 311 313 313 316 318 319 320 321 318 318 319 320 323 324 323 320 321 321 322 321 320 320 324 328
299 300 300 301 301 301 301 301 303 305 306 305 300 307 308 307 308 308 309 310 309 308 308 309 313 314 316 320 318 317 318 319 320 319 320 321 324 323 324 321 321 321 321 320 320 320 321
300 301 301 301 301 301 300 300 300 302 306 305 301 305 308 307 309 309 310 311 309 309 308 309 310 314 316 317 321 320 319 319 320 322 321 322 323 323 324 321 321 321 322 320 320 321 320
301 301 302 302 302 301 300 300 300 301 303 303 302 306 310 310 310 310 308 308 309 309 310 308 310 315 315 315 318 318 317 317 318 319 320 325 324 322 327 323 326 321 321 319 320 320 319
301 302 302 302 302 302 301 300 300 301 302 303 303 307 309 311 310 309 308 310 309 310 309 310 310 311 317 317 319 318 317 318 319 318 319 320 327 326 327 326 323 320 321 321 321 321 320
301 301 301 301 301 302 301 301 301 302 302 303 303 305 309 312 310 308 309 309 310 311 310 310 310 315 317 318 317 319 320 319 318 319 318 319 326 328 330 326 328 324 321 320 321 323 321
301 301 301 302 303 302 302 302 302 302 303 300 304 305 309 310 310 310 310 310 310 310 312 311 311 316 318 319 319 319 318 316 318 323 322 323 325 327 326 327 326 322 321 320 324 325 323
302 303 303 303 303 302 302 302 302 303 303 301 304 304 308 309 309 308 309 310 310 311 312 312 313 315 318 320 320 318 321 316 314 315 323 324 326 327 327 326 328 322 321 321 323 325 325
303 304 304 303 301 302 303 302 303 303 303 301 304 304 307 309 309 308 308 308 310 310 312 312 313 315 315 317 317 318 327 325 316 314 317 324 323 325 325 326 326 322 323 322 324 327 325
Wind_Speed
17 17 19 18 17 16 17 19 19 19 18 17 17 18 18 19 20 21 21 20 21 20 22 24 24 23 18 9 15 5 5 9 8 10 15 13 14 15 15 19 15 12 14 13 18 11 14
18 17 16 18 21 21 19 18 19 20 20 20 19 18 18 18 19 19 19 20 20 19 22 22 22 22 13 20 15 10 7 10 13 16 15 16 14 14 17 17 18 15 14 14 16 19 11
20 20 21 19 20 20 22 25 23 20 20 20 20 20 18 19 20 19 20 21 21 20 20 20 19 16 16 25 16 16 9 14 16 17 14 19 18 16 13 16 15 16 17 17 18 17 12
24 23 24 24 24 22 21 20 25 27 19 20 19 20 20 18 20 22 20 22 21 18 20 17 18 13 12 16 16 21 21 18 17 17 17 19 14 11 16 16 18 17 17 16 14 6 13
27 27 28 26 26 27 26 23 21 23 27 20 21 20 20 19 19 22 23 22 22 19 20 17 11 10 15 12 21 23 19 20 17 16 14 15 10 13 15 16 14 16 15 19 16 10 14
27 28 29 29 30 28 26 27 26 22 20 26 22 20 20 20 20 22 24 22 17 17 12 11 14 11 15 13 12 16 20 20 16 12 13 12 8 13 14 13 15 16 11 20 12 9 12
29 30 31 31 30 29 30 28 27 26 23 21 25 20 19 19 19 18 22 14 6 7 13 11 11 8 18 8 8 9 16 20 19 18 16 17 13 16 19 20 22 16 13 15 4 4 4
35 34 33 31 31 32 30 30 28 28 27 24 21 23 18 17 19 17 16 8 8 7 11 20 24 24 31 26 9 15 18 16 20 21 19 16 19 19 21 21 7 12 14 15 2 2 3
39 39 37 35 33 32 31 30 28 31 28 26 21 20 20 16 17 17 20 25 18 14 9 18 25 24 29 28 24 17 21 22 22 21 21 20 20 20 21 11 9 13 14 3 18 4 13
42 41 39 37 36 35 34 33 31 29 28 28 23 20 17 13 12 19 19 19 21 15 7 14 14 8 27 23 24 29 24 21 16 23 23 24 23 13 16 10 13 14 10 11 11 10 7
42 41 39 39 38 38 37 35 33 31 29 28 26 21 17 19 11 9 4 4 12 5 6 6 11 4 8 21 6 24 34 23 25 22 17 21 20 19 14 15 15 13 6 11 10 12 14
42 41 40 40 40 39 39 37 35 32 30 29 27 22 18 18 21 24 20 20 5 7 11 6 9 8 12 22 26 14 26 23 21 24 20 21 16 19 18 15 13 10 9 9 12 11 11
45 43 42 42 42 41 40 38 37 35 31 31 28 25 21 19 16 19 15 10 7 11 10 12 14 11 16 18 25 21 27 25 23 22 20 18 22 17 15 16 18 9 10 7 6 8 8
44 44 43 43 44 43 41 40 38 36 33 30 29 27 22 24 21 19 4 5 15 21 29 5 19 16 17 17 19 24 21 23 24 21 14 16 16 24 13 17 14 14 14 8 6 3 4
45 45 45 46 45 44 43 41 39 37 35 32 28 29 24 24 24 19 3 14 15 27 24 28 9 11 15 17 11 21 25 22 24 24 21 19 21 20 16 15 18 14 13 16 9 9 5
46 45 46 45 45 45 44 43 41 40 37 33 29 22 26 26 26 16 5 17 27 29 31 21 28 13 13 17 16 17 22 19 22 24 18 16 13 22 21 17 18 16 9 10 6 4 6
46 48 46 47 46 46 45 44 43 42 40 35 26 6 17 29 25 6 11 28 34 24 31 23 25 20 24 16 17 17 13 16 19 17 26 25 15 15 17 16 18 11 11 11 13 7 1
49 47 50 46 45 46 46 45 45 45 44 40 12 9 24 38 11 8 24 25 30 28 29 27 24 25 18 20 13 19 21 16 15 21 23 25 9 10 16 17 16 17 17 15 6 8 5
47 47 48 43 39 43 45 45 45 49 50 37 6 5 24 32 13 19 23 33 26 30 25 24 28 21 14 19 14 15 14 10 2 19 20 20 16 10 15 16 16 19 14 14 13 11 11
40 39 36 38 39 38 41 44 48 53 56 38 6 6 5 14 18 27 25 27 28 31 31 24 23 22 19 16 12 8 17 5 5 7 22 16 17 15 11 15 14 14 16 19 18 7 7
37 36 37 37 36 37 38 40 43 55 61 41 7 9 11 15 23 29 25 14 27 30 29 23 22 20 23 15 15 15 10 10 3 3 5 4 16 17 17 19 20 21 18 19 19 13 15
40 41 41 41 41 42 41 43 44 49 60 27 6 8 15 10 19 26 25 28 25 30 29 34 26 18 17 17 16 19 18 9 5 7 9 6 12 17 16 19 19 14 19 22 20 19 16
44 45 45 46 47 47 45 46 47 49 58 7 10 20 12 17 22 17 26 30 31 23 27 30 29 19 12 21 5 9 7 4 3 3 10 9 7 12 15 17 18 17 17 14 14 15 15
43 43 43 44 48 51 50 50 51 51 58 16 22 15 9 12 15 24 30 32 29 28 24 27 27 21 17 11 5 11 4 4 2 2 5 4 11 9 6 3 22 11 13 15 15 16 15
39 38 38 39 42 50 53 52 52 52 52 27 21 16 9 11 19 21 26 28 28 22 24 24 27 26 11 7 6 7 3 3 7 2 3 8 7 4 6 12 12 18 12 13 14 16 16
35 36 37 38 39 47 53 53 53 50 53 37 31 33 8 11 12 26 17 25 16 18 18 23 20 8 10 5 4 9 6 8 8 2 7 12 9 10 4 12 14 9 12 6 9 11 14
33 39 43 43 44 46 53 54 54 49 48 36 24 29 10 4 3 7 15 17 20 18 14 16 18 14 13 5 3 7 8 10 8 9 5 8 6 13 8 6 6 7 12 10 15 7 11
36 41 40 39 40 47 53 55 50 48 49 39 22 36 13 3 5 3 15 12 18 16 15 15 13 3 11 9 7 6 5 7 8 14 13 13 7 7 5 7 13 3 6 19 8 6 6
16 4 31 40 39 37 49 52 52 51 51 40 12 32 13 3 2 4 17 15 23 22 10 10 14 10 9 7 6 6 3 2 7 8 12 10 13 8 7 7 6 6 6 4 6 5 5
Wind_Direction
290 290 288 289 291 299 292 286 295 289 288 292 298 305 311 315 310 299 293 293 299 298 302 307 314 325 337 286 258 272 235 231 217 201 227 246 248 250 254 262 273 263 263 267 275 277 274
288 288 291 291 285 285 290 298 278 285 290 291 294 298 304 309 314 308 300 289 288 300 296 297 307 318 289 268 262 251 268 225 216 213 231 244 252 254 269 290 290 286 300 292 287 282 271
287 286 286 293 289 293 287 282 287 282 279 288 291 292 298 303 308 309 306 299 289 287 286 290 299 306 272 253 266 274 272 248 230 219 232 238 252 267 277 262 267 264 274 274 264 259 263
285 286 282 284 283 286 284 294 280 279 286 278 283 289 292 297 303 306 303 302 291 282 285 290 298 287 260 259 255 251 248 242 233 227 232 263 251 270 271 283 285 276 263 266 279 224 257
282 283 282 281 280 279 279 284 282 282 278 283 279 282 288 292 300 300 305 299 291 280 279 284 287 218 268 254 231 239 229 228 219 230 231 246 263 247 255 252 261 247 252 257 251 219 256
281 279 277 277 278 278 274 275 279 280 286 276 278 277 280 288 293 302 306 299 293 282 278 255 247 285 243 253 250 217 216 224 220 209 220 231 234 235 239 252 252 266 242 266 248 204 248
278 276 276 274 274 274 272 273 266 271 277 279 273 276 274 283 288 300 313 320 222 203 210 220 197 236 295 230 238 219 197 203 226 208 216 210 222 231 233 231 256 282 303 286 30 343 284
280 278 276 272 270 268 267 266 266 264 265 274 277 271 280 274 284 290 294 260 283 345 288 235 247 259 258 270 272 219 193 191 209 211 208 224 222 237 241 255 299 283 266 277 211 186 261
281 279 275 271 267 266 263 262 261 259 260 265 271 274 265 269 278 277 260 252 277 324 271 266 246 239 237 233 241 249 188 200 206 214 207 222 224 218 245 250 245 247 257 300 285 263 263
281 279 277 275 272 270 266 262 259 258 256 256 261 266 260 249 269 259 251 260 253 283 278 263 230 248 224 222 231 233 224 201 213 215 225 223 238 245 226 231 227 251 228 297 258 266 272
278 278 273 271 268 266 264 261 257 255 253 247 252 254 244 218 271 307 29 354 215 214 274 287 183 123 221 196 173 205 227 198 216 208 217 229 223 236 233 236 240 260 149 266 293 276 286
278 275 271 269 268 264 261 257 255 252 249 248 241 244 235 230 250 257 281 321 212 228 235 238 141 191 193 201 224 208 200 216 219 235 225 231 228 229 228 233 247 271 267 241 269 263 263
275 272 270 269 266 264 257 254 250 248 245 242 239 236 226 220 227 253 258 331 200 223 211 238 174 189 208 200 216 236 188 204 205 212 230 226 241 223 227 228 232 214 245 250 248 250 248
273 272 270 268 265 262 257 251 248 244 241 239 235 229 228 224 231 255 187 219 224 222 232 104 188 177 210 207 211 222 213 207 211 215 212 216 224 227 210 236 209 212 228 235 194 261 343
272 269 267 265 262 257 253 247 243 239 235 232 226 223 222 217 224 244 220 219 220 231 202 241 223 212 211 223 213 210 225 209 208 214 216 207 228 216 210 212 242 212 216 245 134 231 218
270 267 265 261 258 255 249 244 236 231 227 224 208 214 219 209 209 218 218 241 232 239 268 258 230 196 218 205 203 202 209 217 216 205 232 251 214 230 198 201 226 241 248 234 189 175 234
269 269 264 260 255 251 245 239 232 223 218 215 197 211 199 197 194 203 216 218 228 232 249 259 263 258 238 243 207 211 216 222 217 200 226 243 255 220 200 201 209 212 229 240 243 243 301
270 262 264 256 251 250 243 239 228 220 210 201 189 215 177 170 193 214 225 222 228 228 240 256 275 254 252 253 230 220 217 229 191 210 216 236 246 219 219 191 218 236 209 233 212 227 202
266 266 254 256 252 245 241 236 225 214 202 184 187 172 187 171 201 213 226 233 235 236 246 244 254 261 243 269 244 230 213 269 217 174 236 236 238 227 214 211 208 226 229 237 238 235 238
267 263 256 250 243 240 229 230 223 208 198 184 167 165 172 196 215 215 211 222 225 234 245 248 251 270 248 262 254 240 207 249 92 233 224 256 230 233 206 220 205 222 228 222 233 228 264
265 260 254 250 242 237 231 227 221 210 195 183 176 191 181 189 209 213 211 212 221 220 231 247 249 253 262 246 239 257 237 208 264 290 300 258 228 232 237 245 196 218 216 237 246 227 216
265 259 252 244 235 229 226 228 216 210 195 189 166 197 186 207 210 206 217 217 229 213 220 229 243 237 230 260 242 240 223 170 172 233 247 278 224 237 243 246 263 234 228 209 225 243 247
265 259 251 242 234 226 225 223 224 215 198 181 183 217 169 213 187 195 212 217 221 222 221 220 230 233 228 256 359 5 11 7 82 306 204 234 217 227 239 243 259 249 242 245 232 233 237
268 262 253 244 235 224 219 221 220 216 212 177 183 189 197 194 190 205 207 214 223 224 223 223 235 222 220 226 155 323 295 295 238 327 332 299 226 214 224 193 243 264 253 249 261 267 268
271 262 254 241 234 223 213 215 216 216 210 191 181 199 193 205 198 205 209 208 218 228 231 217 231 238 127 84 333 190 277 313 231 195 247 296 293 205 210 233 256 234 233 234 237 243 244
268 258 248 237 234 221 208 208 211 209 204 204 191 194 184 196 210 200 208 207 206 218 217 229 228 200 134 163 187 218 177 218 192 171 259 274 247 252 175 220 232 239 228 211 255 259 256
270 263 253 247 228 212 201 202 200 201 195 184 186 188 191 199 175 221 203 204 202 209 221 213 227 233 166 148 132 236 227 205 197 166 149 265 237 233 229 236 247 224 225 245 245 243 246
289 270 244 219 207 197 196 193 193 189 180 171 171 187 204 176 128 165 220 221 204 211 205 199 203 252 210 176 179 209 217 220 227 200 171 197 214 220 222 241 245 342 226 217 227 226 270
347 99 171 170 171 181 188 188 181 176 172 173 166 181 194 112 165 188 246 239 262 218 217 197 193 184 212 186 202 203 269 148 201 225 194 189 224 219 199 204 186 201 234 284 332 344 298